Wind_Speed
6 5 5 5 4 4 4 4 4 4 4 5 5 5 6 6 6 7 7 7 6 6 6 6 6 6 5 4 5 7 9 9 10 12 13 14 14 15 13 12 11 10 10 11 11 11 10 8 6 4 2 2 2 2 2 2 2 3 4 5 6 7 7 8 8 8 8 8 8 8 9 10 9 9 9 9 9 8 7 8 8 8 9 10 11
10 7 5 5 5 4 4 4 4 3 3 4 4 4 5 5 5 6 7 7 6 5 5 5 6 6 5 5 6 7 9 9 10 11 12 13 14 15 14 13 11 10 10 10 11 11 11 10 8 5 3 2 2 1 1 2 2 3 4 5 6 7 7 7 7 8 8 8 7 7 9 9 9 9 9 9 9 9 9 9 8 7 8 9 9
13 11 7 5 5 5 4 4 4 3 3 3 4 4 5 5 5 5 6 6 6 5 4 4 4 5 4 5 6 7 8 10 10 11 12 13 14 15 15 14 13 11 10 10 10 11 11 10 9 7 4 3 2 1 1 2 2 3 5 6 6 6 6 5 6 7 8 8 8 8 8 9 10 10 9 9 9 10 10 11 10 9 9 8 8
14 15 11 7 4 4 4 5 5 4 3 3 4 4 5 6 6 5 5 6 6 5 4 3 3 4 4 4 5 6 8 10 10 10 11 12 13 14 15 15 14 12 11 10 10 10 10 10 9 7 6 3 2 2 1 2 2 4 5 6 5 5 5 5 4 5 6 7 8 8 8 9 9 10 10 10 9 10 10 11 11 10 9 9 9
14 15 15 11 6 4 4 4 4 4 4 4 4 5 5 6 6 7 6 6 6 5 5 4 3 3 4 4 4 5 6 8 9 9 10 11 11 12 13 14 14 13 11 10 9 9 10 9 9 7 6 5 3 2 1 1 2 3 5 5 5 4 4 4 5 5 5 6 7 8 8 8 9 10 10 10 9 10 11 12 12 11 10 9 9
13 14 16 14 9 5 4 4 3 4 4 4 5 5 6 6 6 7 7 7 7 6 5 4 4 4 5 5 5 5 6 7 8 8 9 9 9 10 11 12 13 13 12 10 9 9 9 9 9 9 8 6 5 3 1 1 3 3 4 5 5 5 4 3 4 5 5 5 6 7 7 8 8 9 10 9 10 10 11 12 12 12 11 10 9
12 13 15 15 12 8 5 4 3 3 4 4 5 6 6 6 6 6 7 7 7 6 6 5 5 5 6 7 7 7 7 7 7 8 8 9 9 9 9 10 11 11 12 11 10 9 9 9 9 10 9 7 6 5 3 2 2 3 4 5 5 5 4 4 4 4 5 5 5 5 6 7 8 9 9 10 10 10 11 12 13 13 12 12 10
10 12 15 15 13 10 7 5 4 3 3 3 4 5 5 6 6 6 6 7 6 6 6 6 6 6 7 8 8 8 9 8 8 8 8 8 9 9 9 9 10 10 11 11 10 10 10 9 9 9 10 9 7 6 5 4 3 3 4 5 5 5 5 5 5 4 5 5 5 5 6 6 7 8 10 11 11 11 11 12 13 13 13 13 12
10 11 14 14 14 12 9 6 5 4 3 3 3 4 5 5 6 6 6 7 6 5 5 6 6 6 7 8 8 9 9 9 9 9 9 9 9 9 9 10 11 10 9 9 9 9 10 10 9 8 9 9 8 7 6 5 5 5 4 4 5 5 5 5 6 5 5 5 6 6 6 6 7 8 9 10 11 11 12 12 13 13 13 14 13
9 11 13 14 14 13 11 8 6 5 3 3 3 3 4 4 5 6 6 6 7 6 6 6 6 7 7 7 8 8 9 9 9 9 9 9 9 9 10 10 11 11 10 8 8 9 9 9 9 8 8 9 9 8 6 6 6 5 5 4 4 4 5 6 6 6 6 6 6 7 7 7 7 8 9 9 10 10 10 12 13 13 13 13 13
9 10 12 13 13 13 12 9 7 6 4 3 3 3 4 4 5 5 6 6 7 7 7 7 7 7 7 7 7 8 9 9 9 9 10 9 9 9 10 10 11 12 11 9 8 9 10 10 9 8 7 8 8 8 6 6 6 6 5 5 4 4 4 5 5 6 7 7 7 7 7 8 8 8 9 9 10 10 10 11 12 13 14 14 13
10 10 11 12 13 12 11 10 8 7 5 4 3 3 3 4 4 4 5 6 6 7 7 7 7 7 7 7 7 8 8 9 9 9 9 9 8 8 9 10 10 11 10 9 10 11 12 11 11 10 9 7 7 8 7 6 5 5 5 5 5 5 5 5 5 5 6 6 6 7 7 7 7 7 8 8 9 10 10 11 11 13 14 14 15
10 10 11 12 12 11 11 10 9 8 6 5 4 3 2 2 3 3 4 4 5 6 6 7 7 7 7 7 8 8 8 8 8 9 9 9 9 8 9 9 9 9 10 10 11 12 13 13 13 12 11 10 8 8 8 7 6 5 6 6 6 6 6 6 6 6 7 7 8 8 8 9 9 9 9 9 10 10 10 11 12 12 13 14 15
11 10 10 11 11 10 10 10 10 9 8 7 6 4 3 2 2 2 2 3 4 5 6 6 7 7 7 7 8 8 8 8 8 9 9 9 9 9 9 9 8 8 9 10 11 13 13 13 13 13 13 12 11 9 9 8 7 6 6 6 6 6 7 7 8 8 9 10 10 11 11 12 12 12 12 12 12 12 12 12 13 14 14 15 15
13 10 10 10 10 9 9 9 10 10 9 9 8 6 5 4 3 2 2 2 3 4 5 6 6 7 7 8 8 8 8 8 8 9 9 9 9 9 10 10 9 8 9 11 12 14 15 14 14 13 13 13 13 12 10 10 9 7 6 6 7 7 8 8 9 9 10 11 12 12 13 13 14 14 14 14 14 14 14 14 14 14 14 15 16
13 10 9 9 9 9 8 8 9 9 9 9 8 8 7 6 4 3 2 2 2 3 4 5 6 6 7 7 8 8 8 8 9 9 9 9 9 9 9 9 9 8 8 11 14 15 16 16 14 14 13 13 13 12 12 11 11 9 7 7 7 8 8 9 9 10 10 10 11 12 12 13 14 14 15 15 15 15 14 14 13 13 13 14 15
13 10 9 9 8 8 7 7 7 7 8 8 8 8 7 7 6 5 4 3 3 3 3 4 5 6 7 7 8 8 8 8 8 8 9 9 9 9 8 8 8 8 8 10 13 15 17 16 15 13 13 13 12 12 11 11 11 10 9 8 8 9 9 10 10 10 10 10 11 11 11 12 12 13 14 14 15 15 15 14 14 12 12 12 13
13 10 9 8 7 8 7 6 6 7 7 7 7 7 7 7 7 6 6 5 4 4 3 4 4 5 6 7 7 8 8 8 8 8 8 9 10 10 9 8 8 9 8 8 11 14 16 17 15 13 13 13 12 11 10 10 10 10 10 9 9 9 10 10 10 11 11 11 11 11 12 12 12 12 13 13 14 14 14 14 14 13 12 11 11
14 11 9 8 7 7 6 5 6 6 7 8 8 7 7 7 7 7 6 6 6 5 5 5 6 6 6 7 7 7 8 8 8 8 8 9 9 10 10 9 9 9 9 9 10 13 15 17 16 13 12 12 12 11 10 9 9 9 9 9 9 9 10 10 10 10 10 10 11 11 12 12 12 12 12 13 13 14 14 14 13 13 13 12 11
15 14 10 8 7 7 6 6 6 6 7 8 8 8 8 8 7 7 7 7 7 7 7 7 7 7 8 8 8 8 8 8 8 8 8 8 9 10 10 10 10 9 9 8 9 12 14 15 15 13 11 11 12 11 11 10 8 8 9 8 8 8 9 9 9 10 9 9 9 10 11 12 12 12 12 12 12 13 14 14 13 13 13 12 11
16 15 11 8 7 7 6 5 6 6 7 8 9 9 8 8 8 7 7 8 8 8 8 8 8 8 9 9 9 9 9 10 9 9 9 9 9 10 11 11 11 10 9 8 8 10 12 14 14 13 11 11 11 11 10 10 8 8 8 8 8 7 8 8 9 9 9 9 8 9 10 11 12 12 11 11 11 12 13 14 13 13 12 12 12
16 15 12 9 7 7 6 4 5 6 7 8 9 9 9 10 9 9 9 8 8 9 9 9 9 9 9 10 10 11 11 11 11 11 11 11 11 11 11 11 11 11 9 9 9 11 12 13 13 12 11 10 11 11 10 9 9 8 7 7 7 7 7 7 8 9 9 9 9 9 9 10 11 12 12 11 11 12 12 13 13 13 12 12 12
14 15 12 9 8 7 6 5 6 7 8 8 9 9 10 10 11 11 11 10 10 10 10 10 10 10 10 10 11 11 12 12 12 12 12 12 11 11 11 11 11 11 11 10 10 11 12 12 12 12 11 11 11 11 11 10 9 9 8 7 7 7 7 7 8 9 10 10 10 10 10 10 10 11 12 12 11 12 12 13 13 13 12 12 12
12 13 12 9 8 7 6 6 8 8 9 9 9 10 11 11 11 11 11 11 10 11 11 11 11 10 10 11 11 11 12 12 13 12 12 12 11 12 12 12 12 12 11 11 12 12 11 12 12 13 12 12 11 11 11 11 11 10 9 8 7 7 7 8 8 9 10 10 11 11 11 11 11 11 12 12 11 12 12 13 13 13 13 13 13
10 11 11 10 8 7 7 7 9 10 10 10 10 10 11 11 10 10 10 10 9 10 10 10 10 10 10 10 11 11 12 12 13 13 13 13 12 13 13 13 13 13 12 12 12 12 12 11 12 12 12 12 12 11 11 12 12 11 10 9 9 8 9 9 9 9 10 10 11 11 12 12 11 12 12 12 11 11 12 12 13 13 13 14 14
8 9 10 10 8 7 8 9 10 10 11 11 10 10 10 10 10 10 10 10 10 10 10 10 11 11 11 11 12 12 12 12 12 13 13 13 13 14 14 14 14 14 13 12 12 12 12 11 11 11 11 11 12 11 11 11 12 11 10 10 10 10 10 10 11 11 10 10 11 12 12 12 12 13 13 12 12 11 11 12 12 13 13 14 14
7 8 9 9 8 8 9 10 10 10 11 10 9 9 9 9 10 10 11 11 12 12 13 13 13 13 13 13 13 13 13 12 12 13 13 13 13 13 14 14 14 13 12 12 12 11 11 11 11 11 11 11 11 11 11 11 11 12 11 11 11 11 11 11 12 12 12 11 11 12 12 13 13 13 13 13 12 12 12 12 12 12 13 14 15
6 7 8 8 7 8 9 10 10 10 10 9 8 7 7 8 9 10 11 11 12 13 14 15 15 15 16 15 15 15 14 14 14 14 13 13 13 13 13 13 12 11 11 11 11 12 12 11 11 11 11 11 11 11 12 12 12 12 12 12 13 13 13 13 13 13 12 12 12 13 13 13 13 13 13 14 13 12 13 13 13 13 13 13 15
5 5 7 7 6 7 8 9 10 10 10 9 7 6 6 7 8 9 10 11 12 12 13 15 16 17 17 18 18 17 17 17 16 15 15 14 14 14 14 12 11 9 10 10 11 12 12 12 12 12 12 12 12 12 12 13 13 13 13 13 14 14 14 14 14 14 13 12 12 13 13 13 13 14 14 14 14 13 13 14 14 14 13 13 13
4 3 5 5 5 6 7 8 9 9 9 8 6 5 6 7 8 9 10 12 13 13 14 15 16 17 17 18 19 19 20 19 18 17 16 15 15 14 14 13 11 10 9 10 10 11 12 12 12 12 12 12 12 12 12 13 13 14 14 14 14 14 14 15 15 15 14 13 12 13 14 14 14 14 14 14 14 13 13 14 14 14 14 13 13
3 2 2 3 4 5 6 7 8 8 9 8 7 6 6 6 8 9 11 13 14 15 17 17 18 18 18 18 19 20 20 21 20 19 18 17 16 15 14 13 13 12 11 10 10 11 11 11 11 10 10 11 11 13 13 13 14 14 14 15 15 14 14 15 16 16 16 14 13 12 13 14 14 14 15 15 15 15 14 14 14 14 14 14 14
2 2 0 2 4 5 6 7 8 9 9 9 8 7 7 7 8 11 13 14 15 16 18 19 20 19 18 19 19 20 21 21 22 21 20 19 19 17 15 13 13 13 12 12 11 11 11 11 10 10 9 9 10 12 13 14 14 14 15 15 16 16 15 15 16 17 17 16 15 14 13 13 14 14 15 15 16 16 16 15 14 14 15 15 15
2 1 1 3 5 7 8 9 10 10 10 10 10 9 9 9 11 13 15 17 18 18 19 20 21 20 19 19 20 20 21 22 22 23 22 20 19 19 18 16 14 13 13 13 13 12 12 12 11 11 9 9 9 11 12 13 13 14 14 15 15 16 16 17 17 17 18 18 18 17 16 15 15 15 15 16 16 17 17 16 15 15 15 16 16
3 3 3 5 7 9 9 10 10 10 10 11 11 12 11 12 13 15 17 19 20 20 20 21 21 20 19 20 21 22 21 22 23 23 24 23 21 20 19 19 18 17 16 15 14 14 13 13 13 12 11 9 8 9 11 12 12 13 14 14 15 16 17 17 18 19 19 19 19 19 19 18 17 17 17 17 17 17 17 17 17 16 16 16 16
6 6 7 8 10 11 11 10 11 11 11 10 11 12 13 14 16 17 19 20 21 21 21 22 21 20 20 22 23 23 23 23 24 24 25 25 24 22 20 19 20 20 19 18 17 16 16 15 14 14 13 12 9 9 11 12 13 14 15 16 16 17 18 18 19 20 21 21 21 22 21 20 20 19 19 19 19 19 18 18 17 17 17 17 17
9 9 10 11 13 13 13 13 12 12 12 11 11 13 14 15 17 18 19 20 21 22 23 23 23 22 22 24 25 26 26 25 25 25 26 26 26 26 24 22 21 21 21 20 20 19 18 18 17 16 16 15 12 11 12 14 15 17 18 19 20 20 20 20 20 21 22 23 23 24 24 23 22 21 21 22 22 21 20 19 18 18 17 17 16
11 11 12 14 15 15 15 14 14 14 14 13 13 14 16 17 18 19 20 22 23 24 25 26 26 24 23 24 25 26 27 27 27 28 27 27 27 28 27 25 24 24 23 22 21 20 20 21 20 20 19 19 17 14 14 15 17 19 21 23 23 24 23 22 22 22 23 24 24 25 26 26 25 24 23 24 25 24 23 21 20 19 18 17 16
13 13 14 16 17 17 17 17 17 17 17 16 16 17 18 20 20 22 23 25 27 28 29 29 29 28 28 27 27 27 27 28 28 29 29 28 29 29 28 28 27 27 27 25 23 22 21 22 23 23 22 22 21 18 17 17 18 19 22 24 26 27 27 25 23 22 23 24 25 26 27 28 28 26 24 25 26 26 25 24 22 21 20 17 16
15 16 17 18 19 20 20 20 20 20 20 20 20 21 22 24 25 26 27 28 30 31 32 32 32 32 32 32 32 32 31 31 31 31 30 30 30 30 30 30 30 30 29 27 26 25 24 22 23 24 24 24 24 22 20 20 19 20 23 25 25 27 28 27 26 24 24 24 25 27 28 29 29 27 26 26 26 27 26 25 25 25 22 18 18
17 18 18 19 21 22 23 23 23 23 23 23 24 25 26 27 28 29 30 32 33 34 35 35 35 34 34 33 34 34 34 34 34 34 33 33 33 33 32 32 32 32 31 30 30 30 30 27 24 24 25 25 25 24 23 23 23 24 25 26 26 27 28 29 28 28 27 26 26 27 28 28 29 28 27 27 28 28 27 26 27 26 23 20 20
17 18 19 20 21 23 25 25 26 26 26 27 27 28 28 28 29 30 32 34 35 36 36 37 36 36 36 35 35 35 35 35 36 36 35 35 35 34 33 32 33 33 33 33 32 33 34 32 27 25 25 26 27 28 28 28 29 29 28 28 28 28 28 30 30 30 29 28 28 27 27 27 28 29 29 29 29 29 28 28 28 27 24 22 23
17 18 19 20 22 24 25 26 27 28 29 29 29 30 30 30 31 33 34 35 37 38 38 39 39 39 38 38 37 36 36 36 36 37 36 36 36 34 33 32 32 33 34 34 33 34 35 34 31 29 27 27 27 29 31 32 33 32 29 27 28 29 30 32 33 30 29 29 28 29 29 28 29 30 30 30 31 30 30 30 28 26 25 25 25
18 19 21 22 23 23 24 25 27 28 30 31 31 32 32 33 33 34 35 36 37 38 40 40 40 40 40 40 38 37 36 35 36 37 36 35 35 33 31 30 31 33 34 34 33 34 34 34 34 32 29 28 28 29 30 32 33 32 31 30 29 29 30 33 34 31 29 29 29 29 30 31 31 31 30 30 31 32 32 31 29 27 26 26 26
20 22 23 24 24 24 25 27 28 29 30 32 32 33 33 33 33 35 36 38 39 40 42 42 42 43 43 42 39 36 34 34 36 38 37 37 36 34 31 30 31 33 34 33 33 33 34 33 33 32 29 28 28 29 29 30 30 31 32 33 33 31 31 33 34 34 33 32 32 32 33 33 33 33 32 31 32 33 33 31 29 28 27 27 27
23 24 26 26 27 28 29 30 30 30 30 31 32 32 33 34 36 38 40 41 43 44 45 47 47 46 45 44 41 36 33 33 35 37 39 38 37 34 32 33 34 34 35 34 33 33 33 32 31 31 30 29 30 30 30 30 30 30 31 32 33 32 33 35 37 37 36 35 35 36 36 34 33 33 33 33 33 33 32 31 30 28 29 28 27
26 27 27 28 30 31 31 31 30 30 30 31 33 34 36 38 40 41 42 44 47 48 48 47 46 43 40 41 40 35 31 32 33 35 37 37 35 34 34 34 35 35 36 36 35 35 34 33 32 32 32 31 31 30 31 31 31 32 32 33 34 34 34 36 38 37 36 36 35 36 37 36 35 33 33 33 34 34 32 31 30 30 29 28 26
28 29 30 31 32 33 32 31 31 31 33 34 35 37 39 41 43 44 47 50 51 50 46 41 37 36 36 36 36 33 31 31 32 33 34 35 34 34 34 34 33 34 34 35 36 36 36 36 35 33 33 32 32 32 32 33 33 34 35 35 34 34 33 34 35 35 35 35 34 35 37 36 35 35 35 34 34 34 33 32 31 30 29 28 26
29 31 32 33 33 33 32 33 34 35 36 37 39 40 41 42 43 47 52 53 50 45 41 34 29 30 32 33 34 33 31 30 31 32 33 34 35 36 36 36 36 35 35 35 36 36 37 38 37 36 36 35 33 33 33 33 34 35 34 33 33 31 31 32 32 33 34 35 35 36 37 36 36 38 38 37 36 35 33 32 31 31 30 28 27
31 33 33 34 34 34 34 35 36 37 39 41 42 42 42 43 47 51 51 47 42 38 34 29 24 25 28 29 31 31 30 30 31 32 33 35 36 37 37 38 39 39 37 36 35 35 36 38 39 39 38 37 34 32 32 32 33 33 33 33 32 31 30 31 31 33 35 36 36 37 37 37 38 39 39 40 40 36 32 32 33 33 32 29 28
33 34 34 34 35 35 35 36 37 39 41 42 43 44 45 48 50 48 43 38 35 32 29 26 24 24 25 26 28 30 30 30 31 32 34 35 36 37 38 39 39 39 39 39 38 37 36 37 39 38 37 36 34 32 31 30 32 33 33 34 34 33 32 32 32 33 35 35 36 37 37 37 38 39 39 39 37 32 30 31 32 33 33 31 30
33 33 34 35 35 35 36 37 38 39 41 43 45 46 48 47 44 40 36 33 31 28 26 26 26 26 27 27 29 30 31 32 34 35 36 37 37 36 37 37 35 36 37 37 36 35 35 38 40 39 37 35 33 31 31 31 32 33 34 35 36 35 35 34 34 34 35 35 36 37 38 37 38 38 37 36 32 29 30 31 32 32 33 32 32
Wind_Direction
15 357 347 343 337 332 337 337 328 326 339 348 348 343 343 346 350 354 356 360 358 354 355 2 17 36 51 46 25 11 6 7 10 6 7 13 15 16 19 19 15 13 14 14 12 13 15 10 359 348 327 287 266 263 272 276 278 284 290 299 304 303 295 282 266 252 247 247 250 255 260 268 279 286 292 297 299 301 303 306 306 307 313 314 307
37 24 5 356 347 336 334 332 327 330 339 346 346 342 344 348 349 351 354 359 4 4 2 6 17 31 42 41 27 17 11 10 11 7 7 12 14 15 19 21 20 18 16 15 13 10 13 16 13 4 347 331 312 290 296 299 294 300 305 310 314 314 306 289 267 252 246 244 243 248 255 265 274 280 286 291 295 296 296 299 299 299 308 319 322
42 35 22 7 357 345 336 329 326 332 335 343 347 342 341 341 343 350 356 358 2 6 7 9 20 30 37 36 29 24 20 16 14 10 8 11 13 13 18 22 22 22 21 17 14 11 10 14 18 19 11 357 346 329 319 315 309 311 312 313 316 319 319 305 276 255 248 244 242 241 246 257 268 276 280 282 286 288 290 295 294 293 298 309 320
42 35 29 20 6 350 338 327 327 334 336 341 348 343 337 335 336 344 354 359 0 1 3 6 18 27 27 25 24 24 22 19 15 11 9 10 11 12 17 22 23 24 24 20 15 12 10 12 18 23 24 18 7 358 343 329 318 313 312 314 316 318 321 322 307 274 258 251 245 243 242 248 259 270 276 278 282 286 290 294 293 294 296 300 306
40 32 28 26 18 355 340 328 330 340 345 346 346 342 337 337 337 339 345 355 359 358 358 355 357 7 7 3 10 13 11 11 11 12 10 8 9 11 15 21 24 25 26 25 21 15 11 13 18 22 25 27 24 14 341 307 299 298 300 305 312 320 321 323 325 315 289 266 254 250 246 246 253 261 270 278 284 288 290 293 293 294 295 294 297
38 30 26 26 22 8 345 330 331 345 353 350 345 342 338 340 342 342 342 346 352 354 355 352 345 347 351 354 0 359 356 357 2 9 11 7 4 7 10 14 20 23 25 27 27 23 15 13 20 22 22 28 31 29 6 280 268 272 281 293 304 318 325 321 319 321 317 297 275 265 260 257 258 263 272 280 287 291 293 294 295 295 294 291 290
36 27 23 24 22 14 354 335 329 340 354 345 338 341 340 342 343 345 347 348 349 350 352 354 349 346 347 352 357 356 353 352 354 2 8 3 358 358 0 1 5 12 17 21 24 29 25 18 21 22 19 21 25 27 26 356 292 273 273 282 297 312 322 323 315 310 311 310 299 289 282 273 270 273 280 284 286 289 292 294 295 295 293 290 288
33 25 20 22 21 15 4 346 335 328 339 329 323 333 339 342 339 339 347 350 349 347 350 353 352 348 345 348 352 351 352 353 352 356 3 2 353 349 352 351 350 354 2 9 14 22 27 23 21 23 18 14 15 17 18 14 357 328 298 287 292 301 312 318 317 311 306 306 305 302 297 289 281 280 281 284 286 289 290 289 289 291 292 290 288
30 23 17 18 18 14 7 357 348 332 316 305 304 320 331 337 336 334 338 342 344 342 344 348 348 348 344 346 349 347 349 352 351 353 0 1 351 347 352 351 345 346 351 360 5 12 21 22 19 22 21 12 9 9 10 9 4 358 344 318 299 292 295 302 306 309 309 308 307 303 302 297 290 284 281 282 284 287 288 287 286 287 289 290 290
28 21 15 14 13 11 8 3 359 347 326 306 298 307 321 326 329 332 332 331 335 335 338 344 347 348 346 347 348 346 347 350 350 351 356 0 353 347 355 357 349 346 351 1 5 7 15 16 11 16 22 16 7 1 3 6 1 358 355 342 324 302 290 290 295 300 303 305 305 303 302 299 295 292 289 288 287 287 287 287 288 288 288 289 290
28 20 14 12 10 9 11 12 10 3 349 328 314 307 312 315 317 327 331 332 336 337 339 346 349 348 347 349 351 350 350 351 351 350 351 358 358 351 356 1 354 349 354 6 11 11 13 13 7 6 14 17 9 359 355 0 0 358 354 348 344 334 315 303 299 300 301 302 304 303 303 302 299 296 294 293 292 291 290 288 289 291 292 292 291
28 19 14 12 9 12 19 23 24 18 10 356 342 326 316 315 313 319 328 336 341 341 343 350 354 352 349 351 354 355 354 353 354 353 350 355 360 355 355 360 356 350 356 8 12 11 11 8 5 5 6 7 6 0 353 351 354 355 352 348 347 346 340 332 325 318 314 313 313 312 311 309 305 302 300 298 296 295 296 296 295 294 294 294 293
24 18 13 10 9 15 26 31 34 34 28 19 12 4 346 330 320 318 326 339 344 344 347 352 354 355 352 351 354 357 357 354 355 355 353 356 360 356 353 358 360 354 357 8 10 9 11 7 2 3 4 2 1 358 352 348 348 350 349 342 337 333 329 327 325 321 318 317 316 315 314 310 307 305 301 298 296 295 297 300 300 299 296 293 292
18 15 13 10 9 17 28 34 40 45 45 43 37 33 36 24 2 340 335 341 344 343 345 347 349 353 352 349 350 353 353 351 350 350 350 352 356 356 351 354 3 3 2 9 9 7 10 10 3 360 0 1 1 358 352 346 341 343 347 340 331 323 316 311 308 306 305 303 304 304 305 304 303 302 300 298 298 298 297 298 298 299 298 295 291
16 13 13 11 9 17 29 34 42 49 53 58 55 53 57 57 53 39 12 0 352 344 341 339 339 344 345 344 345 347 348 345 344 343 343 344 348 351 351 350 358 8 9 12 12 8 9 10 7 1 358 358 360 359 355 349 340 336 339 340 333 326 319 311 305 302 299 298 297 297 299 299 299 299 299 299 299 299 300 298 298 299 299 297 294
15 14 13 12 10 17 30 35 41 50 55 63 66 64 66 65 64 62 47 27 6 350 337 334 333 335 336 336 337 340 340 339 338 337 337 338 338 341 348 351 352 360 8 12 12 9 8 9 7 2 357 357 358 359 358 352 343 337 335 338 335 329 323 316 310 306 303 300 299 298 298 299 299 300 300 300 300 300 301 301 300 301 301 300 299
13 13 15 16 11 17 31 36 38 47 53 61 68 68 68 67 65 62 56 46 25 1 339 333 333 332 333 332 332 333 333 333 333 334 333 332 333 333 338 343 343 345 359 8 9 8 5 3 3 0 354 353 355 358 1 357 346 338 334 336 337 331 324 317 311 308 306 303 301 300 299 298 299 300 301 302 302 302 303 303 303 303 301 300 301
8 10 17 24 20 24 38 40 37 44 49 55 60 59 61 62 60 56 51 46 39 26 10 357 349 342 336 333 333 331 330 329 330 331 329 327 329 331 330 329 330 334 341 345 349 354 356 354 353 356 353 350 350 355 2 1 352 343 338 335 335 331 324 317 311 307 305 304 304 304 303 302 300 300 301 302 302 303 303 304 304 304 303 301 301
9 11 19 30 30 35 50 50 44 47 46 49 51 49 48 47 47 46 40 37 34 29 24 17 6 356 348 343 341 337 333 331 332 332 329 327 327 328 327 324 325 332 334 326 319 327 339 342 341 347 350 347 346 350 358 1 356 350 342 335 331 325 320 315 310 306 302 301 302 304 304 304 303 302 301 302 303 303 304 305 305 306 306 306 303
12 14 19 31 35 42 56 58 52 49 47 47 46 43 40 35 32 30 27 22 19 17 16 12 7 2 356 352 350 346 342 340 341 340 337 332 328 325 325 324 325 332 335 324 307 310 323 329 330 336 343 343 341 343 348 353 355 353 345 335 328 320 315 314 311 307 302 300 302 304 304 303 303 303 303 303 304 305 305 307 308 308 309 310 308
10 14 17 27 36 38 46 56 53 45 45 46 44 40 36 30 23 18 15 10 7 6 5 3 2 359 355 352 350 349 347 345 346 348 347 343 337 330 326 323 323 325 326 317 304 304 312 318 321 327 333 336 335 334 338 341 345 351 347 337 328 321 318 318 316 312 308 308 310 311 309 306 304 304 305 307 308 307 306 307 309 309 309 310 310
3 11 17 25 35 31 30 48 53 42 40 42 42 39 32 25 19 12 7 3 360 359 359 356 356 356 354 353 351 349 347 345 346 348 349 347 342 334 327 323 319 319 318 310 300 299 304 311 316 320 325 329 326 323 326 331 334 340 343 340 335 329 327 325 322 317 314 315 316 316 314 311 309 309 309 310 310 309 309 309 309 310 309 309 309
354 7 18 26 29 31 39 51 45 38 35 36 39 37 30 23 18 13 9 5 359 356 358 357 355 356 355 354 353 351 347 345 345 345 344 341 337 332 327 323 320 318 316 311 303 300 303 309 312 314 320 326 321 316 319 324 327 329 332 337 337 333 332 331 329 324 320 320 320 319 317 316 317 316 314 314 312 309 309 310 310 310 309 308 308
348 2 16 25 26 37 56 53 39 33 30 31 34 31 28 24 21 18 14 10 6 1 360 360 358 358 357 356 354 351 347 344 342 341 339 336 332 328 325 322 320 318 315 312 309 307 308 310 311 314 320 324 321 318 319 321 323 324 324 328 331 331 331 331 331 330 328 327 324 320 319 319 321 319 317 316 315 312 311 311 311 309 308 307 307
340 352 8 21 26 41 58 49 37 31 26 27 31 30 29 28 24 23 20 16 14 9 6 4 1 1 360 357 354 351 347 341 339 339 339 336 331 325 323 320 318 317 316 314 313 314 316 314 314 317 321 322 322 322 320 319 319 320 321 323 325 327 326 325 326 329 330 330 327 321 319 319 319 318 316 316 316 316 314 313 311 309 307 306 305
329 339 357 11 22 36 45 39 32 25 21 23 28 29 31 31 25 22 19 17 16 14 12 8 5 4 1 358 355 352 347 340 338 339 339 336 330 326 323 320 316 314 314 315 317 320 321 318 317 319 321 321 321 321 319 316 315 316 317 319 321 323 322 320 320 321 324 327 326 322 318 316 315 314 314 313 313 315 315 313 311 310 309 308 306
326 328 345 0 14 24 27 26 23 17 15 18 24 29 35 36 31 26 22 20 19 17 16 13 10 7 4 359 355 351 347 343 342 343 341 336 331 328 325 321 317 314 313 314 318 320 321 321 321 323 325 324 322 319 316 313 312 313 314 315 317 319 319 318 318 318 318 320 323 323 319 316 314 313 313 312 311 312 312 310 308 308 308 307 306
330 323 333 351 8 14 14 14 12 7 5 8 13 25 37 40 37 31 27 24 22 21 20 17 14 11 8 4 359 354 349 346 346 346 344 338 333 329 325 320 317 314 313 314 318 319 321 323 325 326 327 325 323 320 315 311 310 311 312 314 315 316 317 317 316 317 318 318 319 320 318 317 315 314 313 313 312 312 311 308 305 304 304 304 304
328 313 321 343 5 9 7 5 1 358 353 351 355 7 22 31 30 27 26 23 21 19 18 17 15 12 10 7 3 359 354 350 348 347 345 339 335 330 324 319 315 313 314 315 317 319 320 322 323 323 323 322 319 317 313 310 309 309 311 312 312 313 315 314 314 315 318 318 316 315 315 315 315 314 314 312 313 314 314 311 307 303 302 303 304
309 289 310 336 356 1 1 355 349 344 337 331 332 339 356 8 11 11 12 8 6 6 4 4 4 4 5 5 4 1 357 352 348 347 345 340 335 329 322 316 312 311 312 313 314 315 315 316 317 317 317 317 314 312 309 308 307 308 309 309 310 311 312 313 313 313 314 314 313 312 311 311 312 313 312 311 311 313 314 313 310 306 304 303 304
270 246 298 330 348 350 347 342 335 329 322 313 309 316 334 347 352 354 355 355 354 354 353 351 350 350 351 354 357 358 355 352 348 345 343 339 335 331 323 314 309 306 305 305 307 309 309 309 310 312 313 314 312 309 307 306 305 305 306 308 309 311 312 312 313 313 313 311 310 308 306 305 307 309 309 308 308 309 311 312 311 307 304 303 303
229 201 293 344 344 337 332 331 328 323 318 312 310 314 323 333 339 341 343 344 345 345 345 343 340 338 339 341 345 349 350 348 345 343 340 337 334 331 326 318 310 303 299 296 296 298 299 299 302 305 307 309 308 305 305 307 307 306 306 307 310 312 313 313 311 310 310 309 307 304 301 299 300 302 304 304 304 305 307 308 309 307 305 304 303
235 223 328 348 340 333 329 327 326 325 323 320 320 322 325 332 335 334 335 336 336 337 338 338 334 330 331 332 334 338 341 342 340 338 335 333 330 327 325 322 316 309 302 296 291 288 287 286 289 291 293 296 298 298 301 305 306 306 306 308 310 312 313 312 310 308 306 306 305 302 300 298 297 297 299 300 300 300 301 303 305 305 305 305 305
269 268 296 322 329 329 325 321 321 322 322 323 325 325 326 327 326 327 330 331 331 331 333 336 334 327 325 327 327 329 332 334 334 333 330 328 325 322 319 317 315 312 310 305 298 291 284 279 278 280 282 287 290 292 297 301 304 306 306 308 311 313 313 311 309 306 304 303 302 301 300 299 297 296 296 297 297 296 295 297 299 301 302 304 305
289 284 291 305 316 319 316 311 310 311 312 316 320 318 316 317 318 322 326 327 326 325 326 331 333 329 324 325 325 324 325 326 327 327 326 324 321 318 314 311 308 307 307 306 304 300 293 283 278 278 283 288 288 286 290 296 300 303 303 304 307 310 310 310 309 306 304 302 300 300 300 299 297 297 296 296 295 293 292 292 293 294 296 299 303
305 303 304 308 313 315 313 308 306 305 305 305 306 306 307 310 313 315 317 317 316 316 317 321 324 324 322 320 321 321 320 320 320 320 321 321 318 314 312 308 304 302 301 300 300 300 296 289 283 281 284 288 287 283 285 290 295 299 300 300 302 304 305 305 306 305 304 302 300 299 298 297 296 296 297 297 295 292 291 290 289 289 289 292 296
309 308 309 312 315 314 310 306 302 300 301 300 298 298 300 302 303 303 304 305 305 308 310 312 314 314 312 311 312 312 312 313 313 313 314 315 313 310 308 305 303 301 299 297 295 294 292 290 286 284 285 287 287 283 281 284 290 294 296 297 298 300 301 302 302 301 300 300 299 296 295 294 294 295 296 295 294 293 292 290 288 286 286 288 291
304 304 307 313 317 315 309 305 300 296 296 295 293 292 293 294 294 294 296 297 299 302 305 306 305 305 304 303 302 301 301 303 304 305 306 308 307 304 302 299 298 297 297 296 294 290 287 285 285 284 284 284 285 284 282 282 286 290 293 294 296 297 299 301 302 300 296 294 294 293 292 291 292 293 293 291 291 291 291 291 290 286 285 288 288
301 301 306 313 318 319 315 311 306 301 297 294 292 291 292 293 294 294 294 295 296 298 299 300 300 300 300 301 300 299 297 296 296 297 299 300 301 300 298 295 293 293 293 293 291 288 282 277 278 279 279 279 281 283 281 279 280 283 284 287 291 294 297 300 300 299 295 291 289 290 290 290 289 289 288 287 288 288 289 290 289 286 287 288 283
304 304 307 311 315 317 316 313 307 301 297 295 293 292 291 292 293 294 294 294 294 294 295 296 296 296 296 296 296 296 296 294 294 294 294 294 295 296 295 292 289 288 288 287 287 286 283 281 278 275 273 273 276 278 277 275 275 274 275 278 282 285 289 293 294 294 292 290 288 287 288 289 288 285 283 283 284 285 287 287 285 286 288 285 279
304 304 305 306 309 312 313 310 306 300 296 294 293 291 290 291 292 293 293 292 292 292 292 292 292 292 292 291 291 291 291 292 293 292 290 290 291 291 290 289 286 285 286 286 285 284 283 285 283 277 272 272 274 275 275 274 272 270 270 273 277 279 282 284 285 286 288 290 290 287 284 284 283 280 277 278 280 282 284 283 283 286 287 282 278
301 302 302 303 306 309 309 308 305 301 297 294 291 290 290 291 293 293 293 292 292 291 291 291 290 290 289 289 288 287 287 289 289 287 285 285 286 287 287 286 285 284 284 286 287 285 283 282 281 279 279 279 278 278 279 280 279 279 276 274 275 278 279 280 281 285 288 289 289 287 283 280 279 277 274 273 276 279 281 282 283 284 283 281 280
297 297 296 298 302 305 306 305 303 300 297 294 292 291 292 294 296 296 296 296 295 294 293 292 291 291 291 290 289 288 287 285 283 280 279 280 282 284 286 285 285 285 286 288 288 286 282 279 278 280 284 286 285 285 286 287 289 289 286 282 281 281 281 283 287 292 293 291 289 286 282 279 277 276 275 274 275 277 279 281 281 280 279 279 280
292 291 291 295 300 304 306 306 304 301 299 297 296 296 296 297 300 301 303 304 304 302 301 299 298 298 296 293 291 289 286 282 280 278 278 278 279 281 282 283 283 284 285 287 286 283 281 278 277 280 285 287 287 287 288 290 291 290 289 288 289 288 286 287 289 291 291 290 287 283 279 277 276 275 274 274 275 276 278 279 278 277 275 275 277
290 290 293 298 302 305 307 306 305 304 303 302 301 301 301 303 306 308 310 310 309 308 305 303 301 300 297 296 296 294 287 281 280 280 280 280 280 280 281 282 283 283 283 283 283 283 283 282 280 282 285 286 285 285 287 288 289 288 288 288 288 287 287 287 288 289 291 292 291 286 278 272 271 272 271 271 272 274 276 277 275 274 273 274 278
288 291 296 300 303 305 305 305 305 305 305 305 304 304 305 307 309 309 310 311 310 308 305 301 296 292 291 294 299 299 292 284 281 282 282 281 279 278 279 280 282 283 283 282 282 282 282 282 282 283 285 285 285 286 287 288 287 285 284 284 284 284 286 286 287 290 292 292 293 289 279 270 266 266 266 267 269 271 272 273 273 274 274 275 277
289 293 297 300 301 303 302 303 304 306 306 307 307 306 306 307 307 308 309 312 312 308 306 302 293 285 285 290 295 300 297 288 283 284 285 284 282 281 280 280 280 281 281 282 282 281 281 281 281 281 282 283 283 285 286 287 286 284 284 284 285 286 287 287 288 290 292 291 291 289 286 281 274 268 265 264 265 266 268 270 271 273 273 273 273
292 295 298 300 301 302 302 303 306 308 309 310 308 307 305 304 305 308 311 313 312 309 308 307 297 286 284 286 291 297 298 290 284 284 285 286 287 286 286 285 283 282 281 280 280 280 280 280 279 279 278 279 280 284 285 285 285 285 286 286 287 288 288 288 289 291 291 292 291 290 289 288 284 278 272 264 261 260 262 265 268 270 270 270 270
296 298 299 300 301 302 303 304 307 310 311 310 308 307 306 305 308 311 312 312 311 310 311 312 307 298 292 288 289 293 296 294 289 287 286 287 287 287 288 287 285 282 280 279 279 280 279 278 278 277 276 276 278 281 282 282 284 287 289 290 291 291 290 289 289 289 289 290 291 292 292 290 289 286 276 264 258 257 258 261 264 267 269 270 270
296 297 299 300 301 301 302 303 305 307 308 308 307 307 307 308 310 311 312 311 311 311 313 314 312 307 302 297 294 293 294 293 292 290 291 290 290 291 289 285 281 279 277 274 273 273 273 276 277 275 273 274 277 278 279 282 285 289 291 293 294 294 292 290 289 288 287 288 289 291 291 290 289 287 281 274 267 260 257 258 259 262 267 269 270
293 294 295 296 296 297 299 300 302 305 306 307 308 308 308 309 310 311 311 310 309 309 311 311 309 306 302 299 296 294 293 292 291 290 290 290 291 291 288 283 282 284 282 276 270 268 271 275 276 273 269 269 272 276 280 284 286 288 290 292 292 291 291 290 289 288 287 288 289 290 291 290 286 284 284 284 277 263 255 255 256 258 263 266 269
Height
3144 3143 3143 3143 3142 3142 3141 3141 3141 3140 3139 3138 3138 3137 3137 3136 3135 3134 3133 3132 3132 3131 3131 3130 3129 3129 3129 3128 3128 3127 3126 3125 3124 3123 3122 3121 3120 3118 3117 3116 3115 3114 3112 3111 3110 3109 3108 3107 3106 3106 3105 3105 3106 3106 3107 3108 3108 3108 3108 3107 3107 3107 3107 3107 3107 3107 3108 3108 3108 3108 3108 3108 3108 3108 3108 3109 3109 3109 3109 3110 3110 3109 3109 3109 3109
3144 3143 3143 3143 3142 3142 3142 3141 3141 3140 3139 3138 3138 3137 3137 3136 3135 3135 3134 3133 3132 3132 3131 3131 3130 3130 3129 3129 3128 3128 3127 3126 3125 3124 3122 3121 3120 3119 3117 3116 3115 3114 3113 3112 3110 3109 3108 3107 3107 3106 3105 3105 3105 3106 3106 3107 3107 3107 3107 3107 3107 3107 3107 3107 3107 3107 3107 3107 3108 3108 3108 3107 3108 3108 3108 3108 3109 3109 3109 3109 3109 3109 3109 3108 3108
3144 3144 3143 3143 3142 3142 3141 3141 3140 3139 3139 3138 3138 3137 3137 3136 3136 3135 3134 3133 3133 3132 3132 3131 3131 3130 3130 3129 3129 3128 3127 3126 3125 3124 3123 3122 3120 3119 3118 3117 3116 3115 3113 3112 3111 3110 3109 3108 3107 3106 3105 3105 3105 3105 3105 3106 3106 3107 3107 3107 3107 3107 3106 3106 3106 3106 3106 3106 3107 3107 3107 3107 3107 3108 3108 3108 3108 3109 3109 3109 3109 3108 3108 3108 3107
3145 3144 3143 3142 3142 3142 3141 3141 3140 3139 3138 3138 3137 3137 3137 3136 3136 3135 3135 3134 3133 3133 3132 3131 3131 3130 3130 3129 3129 3128 3128 3127 3126 3125 3123 3122 3121 3120 3119 3117 3116 3115 3114 3113 3112 3111 3110 3109 3108 3107 3106 3105 3105 3105 3105 3105 3106 3106 3106 3106 3106 3106 3106 3106 3106 3106 3106 3106 3106 3107 3107 3107 3107 3107 3107 3108 3108 3108 3108 3108 3108 3108 3107 3107 3107
3146 3145 3144 3142 3142 3141 3141 3141 3140 3139 3138 3138 3137 3137 3137 3136 3136 3136 3135 3134 3134 3133 3132 3132 3131 3130 3130 3129 3129 3128 3128 3127 3126 3125 3124 3122 3122 3121 3119 3118 3117 3116 3115 3114 3113 3112 3110 3109 3109 3108 3107 3106 3105 3105 3105 3105 3106 3106 3106 3106 3106 3106 3106 3106 3106 3106 3106 3106 3106 3106 3107 3107 3107 3107 3107 3107 3107 3107 3107 3107 3107 3106 3106 3106 3106
3146 3145 3144 3143 3142 3141 3141 3141 3140 3139 3138 3138 3137 3137 3137 3137 3136 3136 3135 3135 3134 3133 3133 3132 3132 3131 3130 3130 3129 3128 3128 3127 3126 3125 3124 3123 3122 3121 3120 3119 3118 3117 3116 3115 3113 3112 3111 3110 3109 3108 3107 3107 3106 3106 3105 3105 3105 3105 3106 3106 3106 3106 3106 3106 3106 3106 3106 3106 3106 3106 3106 3107 3107 3107 3107 3107 3107 3107 3107 3106 3106 3106 3105 3105 3105
3146 3145 3144 3143 3142 3141 3141 3140 3139 3139 3138 3138 3138 3137 3137 3137 3137 3136 3136 3135 3134 3134 3133 3133 3132 3131 3131 3130 3129 3128 3128 3127 3126 3125 3124 3123 3122 3121 3120 3119 3119 3118 3117 3116 3114 3113 3112 3110 3109 3109 3108 3107 3107 3106 3106 3106 3105 3105 3105 3105 3105 3105 3105 3105 3105 3105 3105 3105 3106 3106 3106 3107 3107 3107 3107 3107 3107 3107 3107 3106 3105 3105 3104 3104 3104
3146 3146 3145 3144 3143 3142 3141 3140 3139 3138 3138 3138 3138 3137 3137 3137 3137 3136 3136 3135 3135 3134 3134 3133 3132 3132 3131 3130 3129 3129 3128 3127 3126 3126 3125 3124 3122 3121 3120 3119 3119 3118 3117 3116 3115 3114 3112 3111 3110 3109 3108 3108 3107 3107 3106 3106 3105 3105 3105 3105 3105 3105 3104 3104 3104 3104 3105 3105 3105 3106 3106 3106 3106 3106 3106 3106 3106 3106 3106 3106 3105 3105 3104 3103 3103
3146 3146 3145 3144 3143 3142 3141 3140 3139 3138 3138 3138 3138 3137 3137 3137 3137 3137 3136 3136 3135 3135 3134 3134 3133 3132 3131 3130 3130 3129 3128 3127 3127 3126 3125 3124 3123 3122 3121 3120 3119 3118 3117 3116 3115 3114 3113 3112 3111 3110 3109 3108 3108 3107 3106 3106 3105 3105 3105 3105 3104 3104 3104 3104 3104 3104 3104 3104 3104 3105 3105 3105 3105 3105 3105 3105 3105 3105 3105 3105 3105 3105 3104 3103 3103
3146 3146 3145 3144 3143 3142 3141 3140 3139 3138 3138 3138 3137 3137 3137 3137 3137 3137 3136 3136 3136 3135 3135 3134 3133 3132 3131 3130 3130 3129 3128 3127 3127 3126 3125 3124 3123 3122 3121 3120 3119 3118 3117 3116 3115 3114 3114 3113 3112 3111 3110 3109 3108 3107 3107 3106 3105 3105 3105 3104 3104 3104 3104 3104 3104 3104 3104 3104 3104 3104 3104 3104 3104 3104 3104 3104 3104 3104 3104 3104 3104 3104 3103 3103 3102
3146 3145 3145 3144 3143 3142 3141 3140 3139 3138 3138 3138 3137 3137 3137 3137 3137 3137 3136 3136 3136 3135 3135 3134 3133 3132 3132 3131 3130 3129 3128 3127 3127 3126 3125 3124 3124 3123 3122 3121 3120 3118 3117 3116 3115 3115 3114 3113 3112 3111 3110 3109 3109 3108 3107 3107 3106 3106 3105 3105 3104 3104 3104 3104 3103 3103 3103 3103 3103 3103 3103 3103 3103 3103 3103 3103 3103 3103 3103 3103 3102 3102 3102 3102 3101
3146 3145 3145 3144 3143 3142 3141 3140 3139 3138 3138 3138 3137 3137 3137 3137 3137 3137 3136 3136 3135 3135 3134 3134 3133 3132 3132 3131 3130 3129 3128 3128 3127 3126 3125 3125 3124 3123 3122 3121 3120 3119 3118 3117 3116 3115 3114 3113 3112 3112 3111 3110 3109 3109 3108 3107 3107 3106 3106 3105 3105 3104 3104 3104 3103 3103 3103 3103 3102 3102 3102 3102 3102 3102 3102 3102 3102 3102 3102 3102 3101 3101 3100 3100 3100
3146 3145 3145 3144 3143 3142 3141 3140 3139 3139 3138 3137 3137 3137 3137 3137 3137 3136 3136 3136 3135 3135 3134 3134 3133 3133 3132 3131 3130 3130 3129 3128 3127 3126 3126 3125 3124 3123 3122 3122 3121 3120 3118 3117 3116 3115 3115 3114 3113 3112 3111 3110 3110 3109 3108 3108 3107 3106 3106 3106 3105 3105 3104 3104 3103 3103 3103 3102 3102 3102 3102 3102 3102 3101 3101 3101 3101 3101 3101 3101 3100 3099 3099 3098 3098
3146 3145 3145 3144 3143 3142 3142 3141 3140 3139 3138 3137 3137 3137 3137 3137 3137 3136 3136 3135 3135 3135 3134 3134 3133 3133 3132 3131 3131 3130 3129 3128 3127 3126 3126 3125 3125 3124 3123 3122 3121 3120 3119 3118 3117 3116 3115 3114 3113 3112 3111 3110 3110 3109 3108 3108 3107 3106 3106 3105 3105 3105 3104 3104 3103 3103 3103 3102 3102 3102 3101 3101 3101 3100 3100 3100 3100 3100 3100 3099 3099 3098 3097 3097 3096
3146 3145 3145 3144 3143 3143 3142 3141 3141 3140 3139 3138 3137 3137 3137 3136 3136 3136 3136 3135 3135 3134 3134 3134 3133 3133 3132 3131 3130 3129 3128 3128 3127 3126 3125 3125 3124 3124 3123 3122 3121 3120 3119 3118 3117 3116 3115 3114 3113 3112 3111 3110 3109 3109 3108 3107 3107 3106 3106 3105 3105 3104 3104 3104 3103 3103 3102 3102 3101 3101 3101 3100 3100 3099 3099 3099 3098 3098 3098 3097 3097 3096 3096 3095 3095
3147 3146 3145 3144 3144 3143 3143 3142 3141 3140 3139 3139 3138 3137 3137 3136 3136 3136 3135 3135 3134 3134 3134 3133 3133 3132 3132 3131 3130 3129 3128 3127 3127 3126 3125 3124 3124 3123 3123 3122 3121 3121 3120 3118 3117 3116 3115 3114 3113 3112 3111 3110 3109 3108 3108 3107 3106 3106 3105 3105 3104 3104 3104 3103 3103 3102 3102 3101 3101 3100 3100 3099 3099 3098 3098 3097 3097 3096 3096 3096 3095 3095 3094 3094 3093
3147 3146 3145 3145 3144 3143 3143 3142 3142 3141 3140 3139 3138 3138 3137 3137 3136 3136 3135 3135 3134 3134 3133 3133 3133 3132 3131 3131 3130 3129 3128 3127 3126 3125 3124 3124 3123 3123 3122 3122 3121 3121 3120 3119 3117 3116 3115 3114 3114 3112 3111 3110 3109 3108 3107 3107 3106 3105 3105 3104 3104 3103 3103 3103 3102 3101 3101 3100 3100 3100 3099 3098 3098 3097 3097 3096 3096 3095 3095 3094 3094 3093 3093 3092 3092
3147 3146 3145 3145 3144 3144 3143 3142 3142 3141 3140 3140 3139 3138 3138 3137 3136 3136 3135 3135 3134 3134 3133 3133 3132 3131 3131 3130 3129 3129 3128 3127 3126 3125 3124 3123 3123 3122 3122 3121 3121 3120 3120 3118 3117 3116 3115 3115 3114 3113 3111 3110 3109 3108 3107 3106 3105 3105 3104 3104 3103 3102 3102 3102 3101 3101 3100 3099 3099 3098 3098 3097 3097 3096 3096 3095 3094 3094 3093 3093 3092 3092 3091 3091 3090
3147 3146 3145 3145 3144 3144 3143 3143 3142 3141 3141 3140 3139 3139 3138 3137 3137 3136 3136 3135 3134 3133 3133 3132 3131 3131 3130 3130 3129 3128 3127 3127 3126 3125 3124 3123 3122 3122 3121 3121 3120 3119 3119 3117 3116 3116 3115 3114 3113 3112 3111 3110 3109 3108 3107 3106 3105 3104 3104 3103 3102 3102 3101 3101 3100 3100 3099 3098 3098 3097 3097 3096 3095 3095 3094 3094 3093 3092 3092 3091 3091 3090 3090 3089 3089
3146 3145 3145 3145 3144 3143 3143 3143 3142 3142 3141 3140 3140 3139 3138 3138 3137 3136 3135 3135 3134 3133 3132 3132 3131 3130 3130 3129 3129 3128 3127 3126 3125 3125 3124 3123 3122 3121 3120 3120 3119 3118 3117 3116 3115 3115 3115 3114 3113 3112 3111 3110 3109 3107 3106 3106 3105 3104 3103 3102 3102 3101 3100 3100 3099 3099 3098 3097 3097 3096 3096 3095 3094 3093 3093 3092 3092 3091 3090 3090 3089 3089 3088 3088 3087
3146 3145 3144 3144 3144 3143 3143 3143 3142 3142 3141 3141 3140 3139 3138 3138 3137 3136 3135 3134 3134 3133 3132 3132 3131 3130 3130 3129 3128 3128 3127 3126 3125 3124 3124 3123 3122 3121 3120 3119 3118 3117 3116 3115 3115 3114 3114 3113 3112 3111 3110 3109 3108 3107 3106 3105 3104 3103 3103 3102 3101 3100 3100 3099 3098 3098 3097 3096 3096 3095 3094 3094 3093 3092 3092 3091 3091 3090 3089 3089 3088 3088 3087 3086 3086
3147 3146 3145 3144 3143 3143 3143 3143 3142 3142 3141 3141 3140 3139 3138 3137 3137 3136 3135 3134 3134 3133 3132 3132 3131 3130 3130 3129 3128 3127 3126 3126 3125 3124 3123 3122 3121 3120 3119 3118 3117 3116 3115 3114 3114 3113 3112 3112 3111 3110 3109 3108 3107 3106 3105 3105 3104 3103 3102 3102 3101 3100 3099 3098 3097 3097 3096 3095 3095 3094 3093 3093 3092 3091 3090 3090 3089 3089 3088 3087 3087 3086 3086 3085 3084
3147 3146 3145 3144 3143 3143 3143 3143 3142 3142 3141 3140 3140 3139 3138 3137 3137 3136 3135 3134 3134 3133 3132 3132 3131 3130 3129 3129 3128 3127 3126 3125 3124 3123 3122 3121 3120 3119 3118 3117 3116 3115 3114 3114 3113 3112 3111 3110 3109 3108 3107 3106 3106 3105 3104 3104 3103 3103 3102 3101 3100 3100 3099 3098 3097 3096 3095 3094 3094 3093 3092 3092 3091 3090 3089 3089 3088 3087 3087 3086 3085 3085 3084 3084 3083
3147 3146 3145 3144 3143 3143 3143 3143 3142 3142 3141 3140 3140 3139 3138 3137 3137 3136 3135 3134 3134 3133 3132 3131 3131 3130 3129 3128 3127 3126 3125 3124 3123 3122 3121 3120 3119 3118 3117 3116 3115 3114 3114 3113 3112 3111 3110 3109 3108 3107 3106 3105 3105 3104 3103 3102 3102 3102 3101 3100 3100 3099 3098 3097 3097 3096 3095 3094 3093 3092 3091 3090 3090 3089 3088 3087 3087 3086 3085 3085 3084 3083 3083 3082 3082
3146 3146 3145 3144 3144 3143 3143 3143 3142 3142 3141 3140 3140 3139 3138 3137 3137 3136 3135 3134 3133 3133 3132 3131 3130 3129 3128 3127 3126 3125 3124 3123 3122 3121 3120 3119 3118 3117 3116 3115 3114 3113 3113 3112 3111 3110 3109 3108 3107 3106 3105 3104 3104 3103 3102 3101 3101 3100 3100 3099 3099 3098 3097 3097 3096 3095 3094 3093 3092 3091 3090 3089 3089 3088 3087 3086 3085 3085 3084 3083 3083 3082 3081 3081 3080
3146 3145 3145 3144 3144 3143 3143 3142 3142 3141 3141 3140 3140 3139 3138 3137 3137 3136 3135 3134 3133 3132 3131 3130 3129 3128 3127 3127 3126 3125 3124 3123 3122 3120 3119 3118 3117 3116 3115 3114 3113 3112 3111 3111 3110 3109 3108 3107 3107 3105 3104 3104 3103 3102 3101 3100 3100 3099 3099 3098 3097 3096 3096 3095 3095 3094 3093 3092 3091 3090 3089 3088 3087 3086 3086 3085 3084 3083 3082 3082 3081 3081 3080 3079 3079
3145 3145 3145 3144 3143 3143 3142 3142 3142 3141 3141 3140 3140 3139 3138 3138 3137 3136 3135 3134 3133 3132 3131 3130 3129 3128 3127 3126 3125 3124 3123 3122 3121 3119 3118 3117 3116 3115 3114 3113 3112 3111 3110 3109 3109 3108 3107 3107 3106 3105 3104 3103 3102 3101 3100 3099 3099 3098 3097 3097 3096 3095 3095 3094 3093 3093 3092 3091 3090 3089 3088 3087 3086 3085 3084 3083 3083 3082 3081 3080 3080 3079 3078 3078 3077
3145 3145 3144 3144 3143 3143 3142 3142 3141 3141 3141 3140 3140 3139 3139 3138 3137 3137 3136 3135 3134 3133 3132 3131 3130 3128 3127 3126 3125 3124 3122 3121 3120 3118 3117 3116 3115 3114 3112 3111 3110 3109 3109 3108 3107 3107 3106 3105 3104 3103 3103 3102 3101 3100 3099 3099 3098 3097 3096 3095 3095 3094 3093 3092 3092 3091 3090 3089 3088 3087 3087 3086 3085 3084 3083 3082 3081 3080 3080 3079 3078 3078 3077 3076 3075
3144 3144 3144 3143 3143 3142 3142 3142 3141 3141 3140 3140 3139 3139 3138 3138 3137 3137 3136 3135 3134 3133 3132 3131 3130 3129 3127 3126 3124 3123 3122 3120 3119 3118 3116 3115 3114 3112 3111 3110 3109 3108 3107 3107 3106 3105 3104 3104 3103 3102 3101 3101 3100 3099 3098 3098 3097 3096 3095 3094 3094 3093 3092 3091 3090 3089 3088 3088 3087 3086 3085 3085 3084 3082 3081 3080 3080 3079 3078 3078 3077 3076 3075 3075 3074
3143 3143 3143 3143 3142 3142 3142 3141 3141 3140 3140 3139 3139 3138 3138 3137 3137 3136 3135 3135 3134 3133 3132 3131 3130 3128 3127 3126 3124 3123 3121 3120 3118 3117 3116 3115 3113 3112 3111 3109 3108 3107 3106 3105 3105 3104 3103 3102 3101 3101 3100 3099 3098 3098 3097 3096 3095 3094 3094 3093 3092 3091 3090 3089 3088 3087 3087 3086 3085 3085 3084 3083 3082 3081 3080 3079 3078 3077 3077 3076 3075 3075 3074 3073 3072
3142 3142 3142 3142 3142 3141 3141 3141 3140 3140 3139 3139 3138 3138 3137 3137 3136 3136 3135 3134 3133 3132 3131 3130 3129 3128 3127 3125 3124 3122 3121 3119 3118 3116 3115 3114 3113 3111 3110 3109 3107 3106 3105 3104 3103 3103 3102 3101 3100 3099 3098 3098 3097 3096 3095 3094 3094 3093 3092 3091 3090 3090 3089 3088 3086 3086 3085 3084 3084 3083 3082 3082 3081 3080 3079 3078 3077 3076 3075 3074 3074 3073 3072 3071 3071
3141 3141 3141 3141 3141 3141 3140 3140 3139 3139 3138 3138 3138 3137 3137 3136 3136 3135 3134 3133 3132 3131 3130 3129 3128 3127 3126 3124 3123 3121 3120 3118 3117 3115 3114 3113 3112 3110 3109 3108 3107 3105 3104 3103 3102 3101 3100 3100 3099 3098 3097 3096 3095 3094 3093 3092 3092 3091 3090 3089 3088 3087 3087 3086 3085 3084 3083 3082 3082 3081 3081 3080 3079 3078 3077 3076 3075 3074 3073 3073 3072 3071 3070 3069 3069
3141 3141 3141 3140 3140 3140 3139 3139 3138 3138 3137 3137 3137 3136 3136 3135 3135 3134 3133 3132 3131 3131 3130 3128 3127 3126 3124 3123 3122 3120 3119 3118 3116 3115 3113 3112 3111 3109 3108 3107 3106 3104 3103 3102 3101 3100 3099 3098 3097 3096 3096 3095 3094 3093 3092 3091 3090 3089 3088 3087 3086 3085 3084 3083 3082 3082 3081 3080 3080 3079 3078 3078 3077 3076 3076 3075 3074 3073 3071 3071 3070 3069 3068 3067 3066
3141 3140 3140 3140 3139 3139 3138 3138 3137 3137 3136 3136 3136 3135 3135 3134 3134 3133 3132 3131 3130 3129 3128 3127 3126 3124 3123 3122 3120 3119 3118 3117 3115 3114 3112 3111 3110 3108 3107 3105 3104 3103 3102 3101 3100 3099 3098 3097 3096 3095 3094 3093 3092 3091 3090 3089 3088 3087 3086 3085 3084 3083 3082 3081 3080 3079 3078 3078 3077 3076 3076 3075 3075 3074 3073 3073 3072 3071 3070 3069 3068 3067 3066 3065 3064
3140 3140 3139 3139 3139 3138 3137 3137 3136 3136 3135 3135 3134 3134 3133 3133 3132 3131 3130 3130 3129 3128 3127 3125 3124 3123 3122 3120 3119 3118 3117 3115 3114 3112 3111 3109 3108 3107 3105 3104 3103 3101 3100 3099 3098 3097 3096 3095 3094 3093 3092 3091 3090 3089 3088 3087 3086 3085 3084 3082 3081 3081 3080 3079 3078 3077 3076 3075 3074 3073 3073 3072 3072 3071 3071 3070 3069 3069 3068 3067 3066 3065 3064 3063 3062
3139 3139 3138 3138 3137 3137 3136 3136 3135 3135 3134 3134 3133 3132 3131 3131 3130 3129 3128 3127 3126 3125 3124 3123 3122 3121 3120 3119 3117 3116 3114 3113 3112 3111 3109 3108 3106 3105 3104 3102 3101 3099 3098 3097 3096 3095 3094 3093 3092 3090 3089 3089 3088 3087 3086 3085 3084 3083 3081 3080 3079 3078 3077 3076 3075 3074 3073 3072 3071 3070 3070 3069 3069 3069 3068 3067 3066 3066 3065 3064 3063 3063 3062 3061 3060
3138 3137 3137 3136 3136 3135 3135 3134 3134 3133 3132 3132 3131 3130 3129 3129 3128 3127 3126 3125 3124 3123 3122 3121 3120 3119 3118 3116 3115 3113 3112 3111 3109 3108 3107 3106 3104 3103 3101 3100 3098 3097 3096 3095 3094 3093 3091 3090 3089 3088 3087 3086 3086 3085 3084 3083 3082 3081 3079 3078 3077 3075 3075 3074 3073 3072 3071 3070 3069 3068 3067 3066 3066 3066 3065 3064 3063 3062 3062 3061 3061 3060 3059 3058 3057
3136 3136 3136 3135 3135 3134 3133 3133 3132 3131 3130 3130 3129 3128 3127 3126 3125 3124 3123 3122 3121 3120 3119 3118 3117 3116 3114 3113 3112 3110 3109 3107 3106 3105 3104 3102 3101 3100 3099 3097 3095 3094 3093 3092 3091 3090 3089 3088 3087 3086 3085 3083 3083 3083 3082 3080 3080 3078 3076 3075 3074 3073 3072 3071 3070 3070 3069 3067 3066 3065 3064 3063 3063 3062 3062 3061 3059 3058 3058 3058 3057 3056 3056 3056 3055
3135 3135 3134 3134 3133 3132 3131 3131 3130 3130 3129 3128 3127 3126 3125 3124 3123 3122 3121 3120 3118 3117 3116 3115 3113 3112 3111 3109 3108 3106 3105 3104 3102 3101 3100 3099 3098 3096 3095 3094 3092 3090 3089 3089 3087 3086 3085 3084 3083 3082 3082 3080 3080 3080 3079 3077 3076 3075 3073 3072 3070 3069 3068 3068 3067 3066 3065 3064 3063 3062 3061 3060 3059 3059 3059 3057 3056 3055 3054 3054 3053 3052 3053 3053 3052
3134 3133 3133 3132 3132 3131 3130 3129 3128 3127 3127 3126 3125 3124 3123 3122 3121 3120 3118 3117 3115 3114 3112 3111 3110 3108 3107 3106 3104 3102 3101 3099 3098 3096 3095 3094 3093 3092 3091 3090 3088 3087 3085 3085 3084 3082 3080 3080 3080 3079 3078 3077 3076 3076 3075 3074 3073 3071 3070 3068 3067 3066 3065 3064 3063 3062 3061 3061 3060 3059 3058 3057 3056 3055 3055 3054 3052 3051 3051 3051 3050 3049 3049 3049 3048
3133 3132 3132 3131 3130 3129 3128 3127 3126 3125 3124 3123 3122 3121 3120 3119 3118 3117 3115 3113 3111 3110 3108 3107 3105 3104 3103 3101 3100 3098 3096 3095 3093 3091 3090 3089 3088 3087 3086 3085 3084 3082 3081 3080 3079 3078 3076 3076 3076 3075 3074 3073 3072 3071 3071 3070 3068 3067 3066 3064 3063 3062 3061 3060 3059 3058 3057 3057 3056 3055 3054 3053 3052 3051 3050 3050 3048 3047 3047 3046 3046 3045 3045 3045 3044
3131 3130 3130 3129 3128 3127 3126 3124 3123 3122 3121 3120 3119 3118 3117 3116 3115 3113 3111 3109 3107 3105 3103 3102 3100 3099 3097 3096 3095 3093 3092 3090 3088 3086 3084 3083 3083 3082 3081 3080 3078 3077 3076 3075 3075 3073 3072 3071 3071 3070 3070 3069 3068 3067 3066 3065 3064 3063 3062 3061 3059 3058 3057 3055 3054 3054 3054 3053 3052 3051 3050 3049 3047 3046 3045 3045 3044 3043 3043 3042 3042 3042 3041 3040 3039
3129 3128 3128 3127 3126 3125 3124 3122 3121 3120 3118 3117 3116 3114 3113 3112 3110 3108 3106 3105 3103 3101 3099 3097 3095 3093 3092 3090 3089 3088 3086 3084 3083 3081 3079 3078 3077 3077 3075 3074 3073 3072 3071 3070 3070 3069 3067 3066 3066 3066 3066 3065 3065 3063 3062 3061 3059 3059 3057 3056 3055 3054 3053 3050 3048 3049 3049 3048 3048 3047 3045 3044 3043 3041 3041 3040 3040 3039 3038 3038 3038 3037 3037 3036 3035
3127 3126 3125 3124 3123 3122 3121 3120 3118 3116 3114 3113 3111 3110 3109 3107 3106 3104 3102 3100 3098 3096 3093 3091 3089 3087 3085 3084 3083 3082 3080 3078 3077 3075 3073 3073 3072 3071 3070 3069 3068 3067 3066 3065 3064 3063 3061 3061 3061 3061 3061 3061 3060 3059 3058 3057 3056 3054 3053 3051 3050 3049 3048 3046 3044 3043 3044 3043 3043 3042 3041 3039 3038 3037 3036 3035 3035 3034 3034 3034 3034 3033 3032 3031 3030
3124 3123 3122 3121 3119 3118 3117 3116 3114 3112 3110 3108 3107 3105 3104 3102 3100 3098 3096 3094 3092 3089 3087 3084 3082 3080 3078 3076 3076 3076 3074 3072 3071 3070 3069 3068 3066 3065 3065 3065 3063 3062 3061 3059 3059 3058 3056 3056 3056 3056 3056 3056 3055 3054 3053 3052 3051 3050 3048 3047 3046 3044 3044 3041 3039 3039 3039 3038 3037 3036 3035 3034 3033 3031 3031 3030 3030 3029 3030 3030 3030 3029 3027 3027 3026
3120 3119 3118 3117 3115 3114 3113 3111 3110 3108 3107 3105 3103 3101 3099 3097 3095 3093 3091 3089 3086 3083 3080 3078 3075 3074 3072 3070 3070 3070 3069 3067 3066 3065 3063 3062 3061 3060 3060 3059 3058 3057 3056 3055 3054 3053 3052 3051 3050 3050 3050 3050 3050 3049 3049 3048 3046 3044 3043 3042 3041 3040 3039 3037 3035 3034 3034 3032 3032 3031 3029 3028 3028 3026 3025 3024 3024 3025 3025 3025 3025 3024 3023 3022 3022
3117 3115 3114 3113 3112 3110 3109 3107 3106 3104 3103 3101 3099 3097 3095 3092 3090 3087 3085 3082 3079 3076 3073 3070 3068 3068 3067 3066 3065 3065 3064 3063 3061 3060 3059 3057 3056 3055 3054 3053 3053 3052 3051 3050 3049 3049 3048 3046 3045 3045 3044 3044 3044 3044 3043 3042 3041 3039 3037 3037 3036 3035 3034 3032 3030 3029 3028 3027 3026 3025 3024 3023 3023 3021 3020 3019 3019 3019 3020 3020 3020 3020 3019 3018 3018
3113 3112 3110 3109 3108 3106 3105 3103 3101 3100 3098 3096 3094 3092 3090 3088 3085 3082 3079 3076 3073 3069 3066 3064 3063 3062 3062 3061 3061 3060 3059 3058 3057 3055 3054 3053 3052 3051 3049 3048 3047 3046 3045 3045 3044 3043 3042 3041 3040 3039 3039 3038 3038 3038 3038 3037 3035 3033 3032 3032 3031 3030 3029 3027 3026 3025 3023 3022 3021 3020 3019 3018 3018 3017 3016 3014 3013 3013 3014 3014 3015 3015 3014 3014 3013
3109 3108 3106 3105 3103 3102 3100 3099 3097 3095 3094 3092 3090 3088 3085 3083 3080 3078 3074 3071 3068 3065 3062 3061 3059 3058 3058 3057 3056 3056 3054 3053 3052 3051 3050 3048 3047 3046 3045 3044 3042 3041 3039 3039 3039 3038 3037 3036 3035 3034 3033 3032 3032 3033 3032 3031 3029 3028 3027 3026 3025 3024 3024 3022 3021 3020 3018 3017 3016 3014 3013 3013 3012 3011 3010 3008 3006 3007 3008 3009 3010 3010 3009 3009 3009
3105 3103 3102 3100 3099 3098 3096 3095 3093 3091 3090 3088 3086 3083 3081 3078 3075 3072 3069 3066 3064 3062 3060 3058 3057 3056 3055 3054 3053 3052 3051 3049 3048 3047 3045 3044 3043 3042 3040 3039 3037 3036 3034 3033 3032 3032 3031 3030 3029 3029 3027 3026 3026 3026 3026 3025 3024 3023 3021 3020 3019 3018 3017 3016 3016 3014 3012 3012 3011 3009 3008 3007 3006 3005 3004 3002 3001 3002 3003 3003 3004 3005 3004 3004 3004
3101 3099 3098 3096 3095 3094 3092 3091 3089 3087 3085 3083 3081 3079 3076 3073 3070 3067 3064 3062 3060 3059 3057 3056 3054 3053 3052 3051 3050 3048 3047 3045 3044 3042 3041 3040 3039 3038 3036 3034 3033 3032 3030 3028 3026 3026 3025 3024 3023 3023 3022 3021 3020 3020 3019 3019 3019 3018 3017 3015 3014 3013 3012 3011 3010 3008 3007 3007 3006 3004 3003 3002 3001 2999 2998 2997 2997 2997 2997 2998 2999 2999 2999 2999 2998